FW3318 Weather Reports


time (UTC)temp
F
wind
direction
speed
knots
gust
knots
rain 1hr
in
rain 24hr
in
rain mn
in
humidity
%
barometer
mb
20260506143506 35 213 0.9 7.0 0.00 0.00 0.00 89 1011.0
20260506143007 35 188 0.9 7.0 0.00 0.00 0.00 89 1011.0
20260506142505 35 240 1.7 6.1 0.00 0.00 0.00 89 1010.8
20260506142004 35 218 0.9 6.1 0.00 0.00 0.00 89 1010.8
20260506141503 35 226 0.9 6.1 0.00 0.00 0.00 89 1010.7
20260506141002 35 210 1.7 8.7 0.00 0.00 0.00 89 1010.7
20260506140502 35 238 0.9 5.2 0.00 0.00 0.00 90 1010.7
20260506140100 35 148 0.9 5.2 0.00 0.00 0.00 90 1010.7
20260506135601 35 237 0.9 5.2 0.00 0.00 0.00 90 1010.7
20260506135058 36 184 0.9 3.5 0.00 0.00 0.00 90 1010.6
20260506134559 36 144 0.0 2.6 0.00 0.00 0.00 90 1010.7
20260506134057 36 183 0.9 6.1 0.00 0.00 0.00 90 1010.6
20260506133559 36 200 3.5 6.1 0.00 0.00 0.00 91 1010.5
20260506133104 36 212 0.0 5.2 0.00 0.00 0.00 91 1010.5
20260506132555 36 181 2.6 5.2 0.00 0.00 0.00 91 1010.4
20260506132054 36 198 0.9 4.3 0.00 0.00 0.00 91 1010.3
20260506131555 36 202 0.9 4.3 0.00 0.00 0.00 91 1010.3
20260506131051 36 178 0.9 4.3 0.00 0.00 0.00 91 1010.3
20260506130551 36 209 1.7 4.3 0.00 0.00 0.00 91 1010.3
20260506130049 36 192 0.9 3.5 0.00 0.00 0.00 91 1010.3
20260506125548 36 219 0.0 4.3 0.00 0.00 0.00 91 1010.2
20260506125047 36 223 0.9 4.3 0.00 0.00 0.00 91 1010.2
20260506124546 37 215 0.9 3.5 0.00 0.00 0.00 91 1010.0
20260506124045 37 206 0.9 3.5 0.00 0.00 0.00 91 1009.9
20260506123544 37 211 0.9 2.6 0.00 0.00 0.00 92 1009.9
20260506123046 37 200 0.0 3.5 0.00 0.00 0.00 92 1009.8
20260506122542 37 173 0.9 3.5 0.00 0.00 0.00 92 1009.7
20260506122043 37 248 0.0 2.6 0.00 0.00 0.00 92 1009.6
20260506121546 37 175 0.0 4.3 0.00 0.00 0.00 92 1009.6
20260506121039 37 258 0.9 4.3 0.00 0.00 0.00 92 1009.6
20260506120539 37 178 0.0 2.6 0.00 0.00 0.00 92 1009.4
20260506120105 37 190 0.0 2.6 0.00 0.00 0.00 92 1009.4
20260506115538 37 190 0.0 2.6 0.00 0.00 0.00 92 1009.3
20260506115038 37 184 0.0 2.6 0.00 0.00 0.00 92 1009.2
20260506114537 37 232 0.0 3.5 0.00 0.00 0.00 92 1009.2
20260506114036 38 218 0.9 3.5 0.00 0.00 0.00 92 1009.2
20260506113536 38 184 0.0 3.5 0.00 0.00 0.00 92 1009.2
20260506113036 38 133 0.9 4.3 0.00 0.00 0.00 92 1009.2
20260506112535 38 153 0.0 2.6 0.00 0.00 0.00 92 1009.1
20260506112034 38 252 0.0 2.6 0.00 0.00 0.00 91 1009.1
20260506111533 38 208 0.0 2.6 0.00 0.00 0.00 91 1008.9
20260506111035 38 206 0.9 2.6 0.00 0.00 0.00 92 1008.9
20260506110532 38 184 0.0 3.5 0.00 0.00 0.00 92 1008.9
20260506110031 38 184 1.7 3.5 0.00 0.00 0.00 92 1008.8
20260506105531 38 236 1.7 3.5 0.00 0.00 0.00 92 1008.7
20260506105028 38 207 0.0 5.2 0.00 0.00 0.00 92 1008.6
20260506104529 38 216 0.9 5.2 0.00 0.00 0.00 92 1008.6
20260506104026 38 195 0.9 4.3 0.00 0.00 0.00 92 1008.5
20260506103526 38 146 0.0 2.6 0.00 0.00 0.00 92 1008.5
20260506103029 38 181 0.9 2.6 0.00 0.00 0.00 92 1008.4
20260506102525 37 163 0.0 2.6 0.00 0.00 0.00 92 1008.4
20260506102024 37 178 0.0 2.6 0.00 0.00 0.00 91 1008.4
20260506101525 37 189 0.9 2.6 0.00 0.00 0.00 91 1008.4
20260506101023 37 153 0.0 2.6 0.00 0.00 0.00 91 1008.2
20260506100521 37 219 0.0 2.6 0.00 0.00 0.00 90 1008.2
20260506100022 38 184 0.9 2.6 0.00 0.00 0.00 90 1008.1
20260506095519 38 195 0.0 1.7 0.00 0.00 0.00 90 1008.0
20260506095018 38 195 0.0 1.7 0.00 0.00 0.00 90 1008.1
20260506094528 38 195 0.0 2.6 0.00 0.00 0.00 90 1007.9
20260506094015 38 158 0.0 2.6 0.00 0.00 0.00 90 1007.8
20260506093516 38 165 0.0 1.7 0.00 0.00 0.00 90 1007.7
20260506093023 38 163 0.0 0.0 0.00 0.00 0.00 90 1007.7
20260506092514 38 163 0.0 0.0 0.00 0.00 0.00 90 1007.6
20260506092014 38 163 0.0 0.0 0.00 0.00 0.00 90 1007.6
20260506091512 39 164 0.0 0.9 0.00 0.00 0.00 89 1007.5
20260506091012 39 163 0.0 2.6 0.00 0.00 0.00 89 1007.5
20260506090512 39 165 0.0 3.5 0.00 0.00 0.00 89 1007.4
20260506090009 39 149 0.0 1.7 0.00 0.00 0.00 88 1007.4
20260506085508 39 149 0.0 1.7 0.00 0.00 0.00 88 1007.3
20260506085007 39 149 0.0 0.9 0.00 0.00 0.00 88 1007.3
20260506084507 39 149 0.0 1.7 0.00 0.00 0.00 88 1007.2
20260506084006 40 195 0.0 0.0 0.00 0.00 0.00 88 1007.2
20260506083506 40 196 0.0 0.0 0.00 0.00 0.00 88 1007.2
20260506083004 40 195 0.0 0.9 0.00 0.00 0.00 87 1007.1
20260506082505 40 195 0.0 1.7 0.00 0.00 0.00 87 1007.0
20260506082003 40 195 0.9 1.7 0.00 0.00 0.00 87 1006.9
20260506081501 40 153 0.0 1.7 0.00 0.00 0.00 87 1006.7
20260506081100 40 153 0.0 0.9 0.00 0.00 0.00 86 1006.6
20260506080601 41 150 0.0 0.9 0.00 0.00 0.00 86 1006.6
20260506073100 41 248 0.9 3.5 0.00 0.00 0.00 84 1006.3
20260506072557 41 199 0.9 3.5 0.00 0.00 0.00 84 1006.3
20260506072054 42 298 0.9 7.8 0.00 0.00 0.00 84 1006.1
20260506071555 41 292 1.7 7.8 0.00 0.00 0.00 84 1006.1
20260506071053 41 241 0.9 3.5 0.00 0.00 0.00 84 1006.0
20260506070553 42 259 0.9 3.5 0.00 0.00 0.00 84 1006.1
20260506070114 42 227 0.9 4.3 0.00 0.00 0.00 84 1006.1
20260506062055 43 235 0.0 5.2 0.00 0.00 0.00 83 1005.9
20260506061550 43 221 0.9 3.5 0.00 0.00 0.00 83 1005.8
20260506061050 43 222 0.9 3.5 0.00 0.00 0.00 82 1005.7
20260506060550 43 201 0.9 3.5 0.00 0.00 0.00 82 1005.7
20260506051046 44 204 0.9 4.3 0.00 0.00 0.00 80 1005.4
20260506050544 44 236 0.9 4.3 0.00 0.00 0.00 80 1005.4
20260506045042 44 261 0.0 3.5 0.00 0.00 0.00 81 1005.2
20260506044554 44 261 0.9 3.5 0.00 0.00 0.00 81 1005.1
20260506044042 44 259 1.7 4.3 0.00 0.00 0.00 81 1005.2
20260506043542 44 268 1.7 4.3 0.00 0.00 0.00 81 1005.0
20260506043045 44 195 0.9 6.1 0.00 0.00 0.00 81 1005.0
20260506042542 44 234 2.6 6.1 0.00 0.00 0.00 81 1005.0
20260506042042 44 236 2.6 7.0 0.00 0.00 0.00 80 1004.9
20260506041549 44 300 2.6 8.7 0.00 0.00 0.00 81 1004.9
20260506041043 44 217 2.6 8.7 0.00 0.00 0.00 81 1005.1
20260506040541 44 259 1.7 7.0 0.00 0.00 0.00 81 1005.2
20260506040044 45 221 1.7 5.2 0.00 0.00 0.00 79 1005.1
20260506035540 45 215 1.7 6.1 0.00 0.00 0.00 78 1005.0
20260506035039 45 124 1.7 7.8 0.00 0.00 0.00 77 1005.0
20260506034539 45 232 1.7 8.7 0.00 0.00 0.00 76 1004.9
20260506034038 46 309 3.5 8.7 0.00 0.00 0.00 75 1004.9
20260506033538 46 179 1.7 9.6 0.00 0.00 0.00 74 1004.8
20260506033038 47 218 2.6 12.2 0.00 0.00 0.00 73 1004.8
20260506032537 47 168 2.6 12.2 0.00 0.00 0.00 72 1004.7
20260506032037 47 299 2.6 9.6 0.00 0.00 0.00 71 1004.7
20260506031553 48 158 2.6 6.1 0.00 0.00 0.00 70 1004.5
20260506031035 48 184 1.7 12.2 0.00 0.00 0.00 70 1004.5
20260506030535 49 288 2.6 12.2 0.00 0.00 0.00 70 1004.4
20260506030038 49 211 3.5 12.2 0.00 0.00 0.00 69 1004.3
20260506025534 49 263 2.6 8.7 0.00 0.00 0.00 69 1004.2
20260506025033 49 182 2.6 7.0 0.00 0.00 0.00 70 1004.2
20260506024536 49 143 1.7 7.8 0.00 0.00 0.00 70 1004.1
20260506024032 50 165 2.6 8.7 0.00 0.00 0.00 70 1004.0
20260506023532 51 168 2.6 8.7 0.00 0.00 0.00 68 1003.8
20260506023033 51 218 1.7 7.8 0.00 0.00 0.00 67 1003.6
20260506022531 51 165 2.6 10.4 0.00 0.00 0.00 67 1003.5
20260506022031 51 196 1.7 10.4 0.00 0.00 0.00 68 1003.5
20260506021530 51 256 2.6 7.8 0.00 0.00 0.00 67 1003.5
20260506021028 52 202 2.6 6.1 0.00 0.00 0.00 65 1003.4
20260506020533 52 250 2.6 6.1 0.00 0.00 0.00 64 1003.2
20260506020027 52 182 1.7 8.7 0.00 0.00 0.00 64 1003.2
20260506015526 52 227 2.6 8.7 0.00 0.00 0.00 63 1003.2
20260506015026 52 199 1.7 9.6 0.00 0.00 0.00 65 1003.1
20260506014527 52 218 0.9 9.6 0.00 0.00 0.00 68 1003.1
20260506014024 52 261 3.5 8.7 0.00 0.00 0.00 67 1003.0
20260506013524 52 246 3.5 8.7 0.00 0.00 0.00 67 1003.0
20260506013026 53 284 3.5 7.8 0.00 0.00 0.00 68 1003.0
20260506012523 53 314 1.7 7.8 0.00 0.00 0.00 69 1002.8
20260506012022 52 99 2.6 7.8 0.00 0.00 0.00 69 1002.8
20260506011526 52 194 2.6 8.7 0.00 0.00 0.00 69 1002.8
20260506011022 52 246 1.7 8.7 0.00 0.00 0.00 69 1002.8
20260506010522 52 214 1.7 7.8 0.00 0.00 0.00 69 1002.8
20260506010023 52 196 2.6 7.0 0.00 0.00 0.00 70 1002.8
20260506005521 52 205 2.6 7.8 0.00 0.00 0.00 69 1002.8
20260506005025 52 290 2.6 7.8 0.00 0.00 0.00 68 1002.7
20260506004520 52 189 1.7 7.8 0.00 0.00 0.00 69 1002.8
20260506004020 53 250 3.5 7.8 0.00 0.00 0.00 69 1002.7
20260506003520 53 162 2.6 8.7 0.00 0.00 0.00 69 1002.8
20260506003022 53 225 2.6 6.1 0.00 0.00 0.00 69 1002.5
20260506002520 52 228 2.6 7.0 0.00 0.00 0.00 71 1002.6
20260506002021 52 227 1.7 9.6 0.00 0.00 0.00 71 1002.6
20260506001519 52 217 1.7 9.6 0.00 0.00 0.00 71 1002.6
20260506001019 52 155 2.6 11.3 0.00 0.00 0.00 70 1002.5
20260506000519 52 199 1.7 11.3 0.00 0.00 0.00 71 1002.4
20260506000018 53 252 1.7 13.9 0.00 0.00 0.00 70 1002.4
20260505235517 53 163 2.6 13.9 0.00 0.00 0.00 70 1002.4
20260505235019 53 231 2.6 9.6 0.00 0.00 0.00 70 1002.4
20260505234533 52 217 1.7 9.6 0.00 0.00 0.00 71 1002.3
20260505234015 52 171 2.6 8.7 0.00 0.00 0.00 70 1002.2
20260505233516 52 148 2.6 9.6 0.00 0.00 0.00 70 1002.2
20260505233018 53 184 2.6 9.6 0.00 0.00 0.00 70 1002.1
20260505232515 53 217 3.5 9.6 0.00 0.00 0.00 69 1002.2
20260505232015 53 218 2.6 10.4 0.00 0.00 0.00 69 1002.2
20260505231515 53 203 3.5 8.7 0.00 0.00 0.00 68 1002.2
20260505231013 53 206 1.7 7.8 0.00 0.00 0.00 69 1002.1
20260505230518 53 215 1.7 7.8 0.00 0.00 0.00 70 1002.1
20260505230013 53 156 0.9 7.0 0.00 0.00 0.00 69 1002.0
20260505225508 53 215 2.6 7.0 0.00 0.00 0.00 69 1002.1
20260505225007 53 220 1.7 7.0 0.00 0.00 0.00 70 1002.0
20260505224506 53 262 1.7 8.7 0.00 0.00 0.00 71 1002.0
20260505224005 52 173 2.6 8.7 0.00 0.00 0.00 70 1002.0
20260505223503 52 247 1.7 7.8 0.00 0.00 0.00 71 1001.9
20260505223003 52 175 1.7 9.6 0.00 0.00 0.00 70 1001.9
20260505222600 52 279 3.5 9.6 0.00 0.00 0.00 71 1001.9
20260505222100 51 239 2.6 7.8 0.00 0.00 0.00 72 1001.8
20260505221613 51 223 1.7 7.8 0.00 0.00 0.00 73 1001.8
20260505221056 51 288 1.7 4.3 0.00 0.00 0.00 74 1001.7
20260505220558 51 209 0.9 4.3 0.00 0.00 0.00 75 1001.7
20260505220126 50 180 0.9 6.1 0.00 0.00 0.00 75 1001.7
20260505215552 50 168 1.7 6.1 0.00 0.00 0.00 75 1001.8
20260505215051 50 201 0.9 5.2 0.00 0.00 0.00 77 1001.7
20260505214608 49 260 1.7 6.1 0.00 0.00 0.00 79 1001.7
20260505214048 49 212 2.6 6.1 0.00 0.00 0.00 79 1001.7
20260505213549 49 243 1.7 6.1 0.00 0.00 0.00 79 1001.6
20260505213048 48 179 1.7 6.1 0.00 0.00 0.00 79 1001.6
20260505212545 48 240 0.9 5.2 0.00 0.00 0.00 80 1001.6
20260505212044 48 217 2.6 5.2 0.00 0.00 0.00 80 1001.5
20260505211543 48 251 1.7 6.1 0.00 0.00 0.00 80 1001.4
20260505211042 48 182 1.7 4.3 0.00 0.00 0.00 81 1001.4
20260505210543 47 222 1.7 4.3 0.00 0.00 0.00 82 1001.4
20260505210038 47 176 0.9 3.5 0.00 0.00 0.00 85 1001.3
20260505205538 47 167 0.9 2.6 0.00 0.00 0.00 85 1001.3
20260505205036 46 199 0.9 2.6 0.00 0.00 0.00 85 1001.4
20260505204535 46 129 0.9 2.6 0.00 0.00 0.00 86 1001.3
20260505204034 46 167 0.9 3.5 0.00 0.00 0.00 86 1001.3
20260505203533 46 134 0.9 3.5 0.00 0.00 0.00 86 1001.3
20260505203033 46 143 0.9 2.6 0.00 0.00 0.00 86 1001.3
20260505202534 46 179 0.9 3.5 0.00 0.00 0.00 86 1001.2
20260505202032 45 196 0.9 3.5 0.00 0.00 0.00 86 1001.1
20260505201532 45 97 0.9 2.6 0.00 0.00 0.00 86 1001.0
20260505201032 45 154 0.0 2.6 0.00 0.00 0.00 86 1000.9
20260505200532 45 191 0.9 2.6 0.00 0.00 0.00 86 1000.9
20260505200034 45 211 1.7 2.6 0.00 0.00 0.00 86 1000.9
20260505195531 45 185 0.0 4.3 0.00 0.00 0.00 87 1000.8
20260505195030 45 190 1.7 3.5 0.00 0.00 0.00 86 1000.8
20260505194529 45 175 0.9 2.6 0.00 0.00 0.00 86 1000.6
20260505194029 45 128 0.9 2.6 0.00 0.00 0.00 86 1000.5
20260505193529 45 186 0.0 2.6 0.00 0.00 0.00 86 1000.6
20260505193028 44 173 0.9 2.6 0.00 0.00 0.00 86 1000.5
20260505192628 44 173 0.9 3.5 0.00 0.00 0.00 87 1000.5
20260505192028 44 114 0.9 2.6 0.00 0.00 0.00 87 1000.5
20260505191528 44 147 0.9 2.6 0.00 0.00 0.00 87 1000.4
20260505191126 44 148 0.9 2.6 0.00 0.00 0.00 87 1000.5
20260505190530 43 171 0.0 2.6 0.00 0.00 0.00 87 1000.3
20260505190025 43 172 0.0 1.7 0.00 0.00 0.00 87 1000.4
20260505185526 43 221 0.0 2.6 0.00 0.00 0.00 87 1000.4
20260505185025 43 221 0.0 2.6 0.00 0.00 0.00 87 1000.4
20260505184528 43 174 0.0 1.7 0.00 0.00 0.00 87 1000.3
20260505184026 43 174 0.9 2.6 0.00 0.00 0.00 88 1000.5
20260505183526 43 173 0.9 2.6 0.00 0.00 0.00 87 1000.4
20260505183040 43 193 0.0 0.0 0.00 0.00 0.00 87 1000.4
20260505182526 43 193 0.0 1.7 0.00 0.00 0.00 86 1000.3
20260505182025 43 193 0.0 1.7 0.00 0.00 0.00 86 1000.4
20260505181526 44 196 0.0 2.6 0.00 0.00 0.00 85 1000.5
20260505181025 44 197 0.0 2.6 0.00 0.00 0.00 84 1000.6
20260505180524 44 178 0.0 2.6 0.00 0.00 0.00 82 1000.5
20260505180024 45 183 0.9 2.6 0.00 0.00 0.00 80 1000.4
20260505175524 45 175 0.9 2.6 0.00 0.00 0.00 79 1000.5
20260505175023 45 223 0.0 2.6 0.00 0.00 0.00 79 1000.5
20260505174523 45 214 0.9 2.6 0.00 0.00 0.00 79 1000.4
20260505174023 46 137 1.7 4.3 0.00 0.00 0.00 78 1000.3
20260505173526 46 154 0.9 4.3 0.00 0.00 0.00 79 1000.2
20260505173023 45 138 0.0 4.3 0.00 0.00 0.00 79 1000.1
20260505172524 45 215 1.7 4.3 0.00 0.00 0.00 80 1000.2
20260505172022 44 230 1.7 4.3 0.00 0.00 0.00 81 1000.1
20260505171522 43 170 0.0 3.5 0.00 0.00 0.00 82 1000.0
20260505171022 42 146 1.7 3.5 0.00 0.00 0.00 84 1000.0
20260505170519 41 115 0.0 1.7 0.00 0.00 0.00 84 999.8
20260505170019 41 115 0.9 2.6 0.00 0.00 0.00 85 999.9
20260505165518 40 115 0.9 2.6 0.00 0.00 0.00 86 999.9
20260505165017 40 120 0.9 2.6 0.00 0.00 0.00 86 1000.1
20260505164517 40 116 0.9 2.6 0.00 0.00 0.00 86 999.9
20260505164015 39 190 0.0 0.0 0.00 0.00 0.00 86 999.8
20260505163515 39 189 0.0 0.0 0.00 0.00 0.00 86 999.7
20260505163015 39 189 0.0 0.0 0.00 0.00 0.00 86 999.7
20260505162513 39 190 0.0 0.0 0.00 0.00 0.00 87 999.7
20260505162013 39 190 0.0 0.0 0.00 0.00 0.00 87 999.7
20260505161512 39 190 0.0 0.0 0.00 0.00 0.00 86 999.8
20260505161012 39 189 0.0 1.7 0.00 0.00 0.00 87 999.8
20260505160512 39 189 0.0 1.7 0.00 0.00 0.00 87 999.8
20260505153010 37 168 0.0 1.7 0.00 0.00 0.00 93 999.4
20260505152509 37 50 0.0 0.0 0.00 0.00 0.00 93 999.5
20260505152010 37 50 0.0 0.0 0.00 0.00 0.00 92 999.5
20260505151510 36 50 0.0 0.0 0.00 0.00 0.00 92 999.4
20260505151007 36 50 0.0 0.0 0.00 0.00 0.00 92 999.5
20260505150507 36 50 0.0 0.0 0.00 0.00 0.00 92 999.5